sat.trackr.live / text

‹ back to catalog

STARLINK-36117

NORAD 66865 · 2025-281T

PAYLOAD ACTIVE UNKNOWN

§ Identity

Operator
Country
US
Launch date
2025-12-02
Launch site
AFETR
Launch vehicle
Mass (kg)
RCS (m²)

Purposes: comms

External: N2YO · Heavens-Above · Gunter

§ Orbital elements

Epoch: 2026-09-20T04:15:18.160128Z

Period
94.27 min
Inclination
43.0005°
Eccentricity
0.0001484
Mean motion
15.27585901 rev/d
Perigee alt
482.0 km
Apogee alt
484.0 km
Semi-major
6,861.2 km
B*
4.2790e-4
RAAN
324.7838°
Arg perigee
274.0797°
Mean anomaly
85.9885°
Rev number
4,593

§ Raw data

STARLINK-361171 66865U 25281T   26263.17729352  .00011533  00000+0  42790-3 0  99912 66865  43.0005 324.7838 0001484 274.0797  85.9885 15.27585901 45930

JSON: /api/v1/satellites/66865 · /tle

For live sub-satellite position, see the globe view (requires WebGL).

§ Visibility from observer

Set your observer location to see the next 7 days of passes ≥ 10°. The values pass through the URL so the page stays shareable.

No JS? Fill the form by hand. The geolocation button needs JavaScript.